Total_Precipitation_Accumulation
0.78 1.31 1.63 1.51 1.50 1.45 1.26 1.21 1.07 0.90 0.88 0.90 0.81 0.81 0.86 0.85 0.83 0.69 0.54 0.43 0.38 0.33 0.26 0.24 0.22 0.25 0.28 0.32 0.39 0.45 0.51 0.69 0.82 0.88 0.98 1.16 1.33 1.50 1.64 1.75 1.65 1.51 1.47 1.64
0.86 1.15 0.91 0.83 0.96 1.02 1.09 1.11 0.97 0.82 0.71 0.71 0.71 0.73 0.76 0.73 0.72 0.60 0.46 0.38 0.29 0.23 0.21 0.16 0.13 0.14 0.18 0.21 0.26 0.31 0.39 0.49 0.61 0.78 1.01 1.20 1.49 1.58 1.66 1.79 1.83 1.77 1.71 1.87
0.91 0.83 0.57 0.66 0.85 0.89 0.90 0.95 0.86 0.78 0.67 0.62 0.61 0.75 0.74 0.67 0.64 0.55 0.42 0.33 0.24 0.18 0.15 0.12 0.10 0.10 0.14 0.16 0.17 0.24 0.36 0.49 0.70 0.94 1.26 1.55 1.78 1.86 1.90 1.85 1.90 1.98 2.03 2.10
0.84 0.62 0.56 0.66 0.73 0.76 0.86 0.64 0.58 0.57 0.64 0.65 0.58 0.84 0.64 0.53 0.54 0.48 0.40 0.36 0.28 0.19 0.14 0.12 0.12 0.11 0.12 0.15 0.20 0.31 0.49 0.68 0.95 1.29 1.63 1.87 2.10 2.21 2.05 2.03 2.06 2.06 2.01 2.04
0.69 0.57 0.54 0.63 0.52 0.49 0.57 0.49 0.56 0.57 0.56 0.49 0.39 0.54 0.53 0.44 0.50 0.41 0.33 0.33 0.32 0.26 0.19 0.17 0.18 0.18 0.22 0.28 0.36 0.52 0.77 1.06 1.35 1.58 1.76 1.96 2.09 2.11 2.09 2.05 2.04 1.97 1.94 1.90
0.51 0.43 0.46 0.43 0.36 0.38 0.40 0.48 0.61 0.62 0.61 0.63 0.34 0.42 0.52 0.43 0.41 0.36 0.31 0.29 0.26 0.24 0.24 0.24 0.27 0.33 0.40 0.45 0.59 0.77 0.95 1.24 1.42 1.54 1.65 1.82 1.98 2.02 2.04 2.02 2.02 2.01 1.98 1.88
0.47 0.39 0.32 0.28 0.34 0.36 0.40 0.64 0.91 0.95 0.91 0.68 0.34 0.49 0.58 0.44 0.35 0.31 0.31 0.30 0.26 0.30 0.34 0.34 0.42 0.56 0.65 0.68 0.77 0.91 1.00 1.18 1.30 1.34 1.42 1.57 1.63 1.69 1.75 1.74 1.70 1.65 1.61 1.61
0.45 0.45 0.29 0.25 0.32 0.36 0.36 0.55 0.91 1.00 0.86 0.62 0.47 0.70 0.65 0.43 0.35 0.32 0.32 0.30 0.32 0.42 0.52 0.61 0.73 0.82 0.89 0.89 0.86 0.88 1.01 1.06 1.05 1.08 1.08 1.22 1.31 1.36 1.42 1.42 1.41 1.45 1.50 1.53
0.37 0.37 0.22 0.17 0.19 0.28 0.35 0.38 0.45 0.64 0.60 0.64 0.61 0.80 0.75 0.45 0.38 0.34 0.33 0.35 0.42 0.57 0.75 0.97 1.14 1.24 1.31 1.22 1.03 0.90 0.90 0.89 0.87 0.93 0.97 1.04 1.13 1.17 1.19 1.22 1.18 1.27 1.32 1.32
0.28 0.36 0.28 0.19 0.20 0.23 0.29 0.39 0.50 0.75 0.92 0.88 0.79 0.93 0.92 0.65 0.53 0.45 0.46 0.55 0.70 0.90 1.18 1.43 1.67 1.78 1.75 1.56 1.30 1.02 0.85 0.82 0.79 0.82 0.88 0.94 0.98 0.99 0.98 1.02 0.96 1.02 1.11 1.11
0.22 0.35 0.31 0.24 0.26 0.30 0.33 0.47 0.58 0.74 0.82 1.04 1.17 1.20 0.97 0.87 0.76 0.73 0.79 0.95 1.16 1.42 1.61 1.76 1.91 1.95 1.69 1.51 1.27 1.01 0.86 0.88 0.90 0.90 0.91 0.90 0.85 0.84 0.83 0.82 0.79 0.83 0.90 0.90
0.18 0.29 0.35 0.23 0.20 0.25 0.44 0.64 0.83 1.14 1.06 1.01 1.22 1.28 0.93 0.86 0.89 0.92 1.04 1.10 1.22 1.36 1.37 1.45 1.53 1.49 1.44 1.38 1.21 1.04 0.95 0.96 1.00 1.01 1.02 0.94 0.84 0.78 0.77 0.74 0.67 0.68 0.67 0.66
0.27 0.42 0.49 0.43 0.45 0.48 0.55 0.59 0.66 0.84 0.95 1.01 1.27 1.35 0.90 0.81 0.81 0.96 1.14 1.20 1.28 1.30 1.21 1.19 1.21 1.25 1.27 1.23 1.11 1.09 1.05 1.06 1.06 1.05 0.96 0.88 0.79 0.68 0.62 0.55 0.51 0.58 0.60 0.67
0.26 0.45 0.56 0.66 0.62 0.58 0.64 0.61 0.54 0.65 0.94 1.00 1.16 1.15 0.94 0.86 0.83 0.92 1.05 1.14 1.11 1.04 0.98 0.96 1.03 1.11 1.16 1.12 1.09 1.04 0.99 1.02 1.12 1.18 1.08 0.97 0.85 0.73 0.65 0.57 0.53 0.53 0.56 0.63
0.18 0.23 0.26 0.26 0.25 0.34 0.55 0.65 0.63 0.61 0.68 0.90 0.89 0.81 0.77 0.72 0.74 0.76 0.81 0.78 0.70 0.65 0.66 0.71 0.76 0.76 0.73 0.68 0.72 0.75 0.80 0.91 1.06 1.20 1.17 1.03 0.85 0.72 0.65 0.60 0.53 0.52 0.54 0.55
0.12 0.14 0.13 0.13 0.13 0.22 0.37 0.48 0.50 0.47 0.47 0.56 0.62 0.61 0.52 0.49 0.53 0.55 0.57 0.53 0.49 0.45 0.42 0.41 0.43 0.42 0.41 0.37 0.34 0.35 0.42 0.58 0.83 1.08 1.06 0.84 0.67 0.54 0.50 0.51 0.50 0.48 0.47 0.52
0.07 0.11 0.15 0.14 0.11 0.18 0.40 0.42 0.39 0.40 0.33 0.34 0.39 0.39 0.35 0.38 0.45 0.46 0.51 0.53 0.40 0.32 0.30 0.30 0.30 0.29 0.27 0.26 0.25 0.26 0.34 0.45 0.62 0.73 0.71 0.61 0.50 0.47 0.50 0.52 0.47 0.46 0.47 0.48
0.06 0.10 0.17 0.17 0.18 0.44 0.66 0.57 0.48 0.44 0.26 0.19 0.20 0.22 0.26 0.36 0.40 0.41 0.40 0.41 0.40 0.29 0.21 0.21 0.21 0.21 0.24 0.24 0.27 0.30 0.35 0.40 0.44 0.48 0.49 0.44 0.41 0.42 0.45 0.46 0.45 0.52 0.58 0.55
0.09 0.18 0.25 0.26 0.32 0.51 0.59 0.52 0.52 0.51 0.37 0.17 0.14 0.15 0.15 0.15 0.17 0.20 0.21 0.19 0.20 0.17 0.13 0.12 0.12 0.12 0.14 0.13 0.14 0.15 0.17 0.18 0.19 0.19 0.21 0.22 0.21 0.23 0.24 0.25 0.32 0.42 0.49 0.53
0.12 0.19 0.29 0.31 0.40 0.51 0.41 0.25 0.28 0.40 0.49 0.15 0.09 0.08 0.07 0.05 0.10 0.12 0.13 0.14 0.11 0.09 0.10 0.09 0.08 0.09 0.11 0.10 0.10 0.08 0.07 0.07 0.08 0.08 0.09 0.11 0.12 0.13 0.13 0.15 0.19 0.25 0.26 0.31
0.12 0.19 0.25 0.31 0.50 0.68 0.48 0.27 0.26 0.46 0.47 0.12 0.06 0.05 0.04 0.06 0.05 0.07 0.09 0.12 0.11 0.09 0.10 0.10 0.09 0.09 0.10 0.11 0.10 0.09 0.08 0.08 0.08 0.10 0.12 0.12 0.11 0.12 0.12 0.13 0.15 0.17 0.18 0.22
0.16 0.23 0.27 0.39 0.68 0.87 0.65 0.44 0.39 0.32 0.14 0.07 0.04 0.03 0.03 0.04 0.04 0.05 0.07 0.10 0.10 0.09 0.09 0.10 0.08 0.09 0.10 0.10 0.10 0.10 0.10 0.10 0.10 0.11 0.11 0.12 0.12 0.12 0.12 0.13 0.15 0.17 0.17 0.18
0.10 0.14 0.20 0.34 0.55 0.56 0.49 0.38 0.28 0.21 0.11 0.04 0.03 0.02 0.02 0.03 0.03 0.05 0.07 0.06 0.07 0.08 0.08 0.09 0.10 0.10 0.11 0.10 0.10 0.09 0.11 0.12 0.11 0.11 0.11 0.12 0.14 0.13 0.12 0.14 0.16 0.18 0.18 0.20
0.08 0.08 0.10 0.11 0.16 0.19 0.21 0.20 0.14 0.11 0.08 0.03 0.02 0.03 0.03 0.03 0.03 0.03 0.06 0.07 0.07 0.07 0.08 0.08 0.10 0.11 0.12 0.12 0.11 0.12 0.12 0.11 0.10 0.11 0.13 0.14 0.15 0.15 0.15 0.16 0.17 0.19 0.20 0.22
0.08 0.10 0.13 0.12 0.08 0.06 0.10 0.11 0.10 0.07 0.04 0.02 0.02 0.03 0.04 0.04 0.05 0.05 0.06 0.09 0.10 0.09 0.10 0.12 0.13 0.12 0.12 0.13 0.14 0.16 0.16 0.13 0.12 0.12 0.13 0.13 0.14 0.15 0.16 0.17 0.17 0.17 0.18 0.22
0.04 0.08 0.13 0.13 0.08 0.07 0.08 0.07 0.06 0.05 0.03 0.02 0.02 0.03 0.03 0.03 0.04 0.05 0.06 0.07 0.09 0.10 0.09 0.10 0.12 0.12 0.12 0.12 0.13 0.15 0.18 0.20 0.20 0.17 0.15 0.13 0.13 0.14 0.14 0.15 0.16 0.17 0.18 0.22